www.pogodaiklimat.ru

ПОГОДА в Nehbandan

  • Прогноз погоды в Nehbandan
  • Монитор погоды в Nehbandan
  • Климат города

АРХИВ ПОГОДЫ в Nehbandan

Время (UTC), дата Ветер
(напр.,м/с)
 
Видим.   Явления Облачность Т
(С)
Тd
(С)
f
(%)
Тe
(С)
Тes
(С)
Комфортность P
(гПа)
Po
(гПа)
Тmin
(С)
Tmax
(С)
R
(мм)
S
(см)
18 9.01 штиль 0 15 км ясно +3.0 -20.0 17 +3 +3 1020.9 884.3
21 9.01 штиль 0 15 км ясно -0.9 -21.4 19 -1 -1 1020.0 884.0
00 10.01 штиль 0 15 км ясно -2.7 -21.4 22 -3 -3 1019.2 883.5
03 10.01 штиль 0 20 км ясно -2.2 -21.8 21 -2 -2 1022.2 884.3 -3.2
06 10.01 штиль 0 20 км ясно +8.6 -23.2 8 +9 +16 1023.2 886.6
09 10.01 ЮЗ 2 20 км ясно +16.5 -28.4 3 +17 +24 1020.1 884.8
12 10.01 ЮЗ 2 20 км ясно +17.5 -29.2 3 +18 +19 1019.7 884.3
15 10.01 штиль 0 15 км ясно +9.1 -21.8 9 +9 +9 1023.6 885.9 +18.0
18 10.01 штиль 0 15 км ясно +6.0 -22.1 11 +6 +6 1022.4 886.6
21 10.01 штиль 0 15 км ясно +0.9 -20.1 19 +1 +1 1020.8 885.8
00 11.01 штиль 0 15 км ясно -0.1 -20.6 20 0 0 1020.5 885.6
03 11.01 штиль 0 20 км ясно -0.1 -20.7 19 0 0 1023.3 886.1 -0.3
06 11.01 штиль 0 20 км ясно +10.7 -21.3 9 +11 +18 1023.8 888.3
09 11.01 ЮВ 2 20 км ясно +17.8 -24.3 4 +18 +26 1020.8 886.1
12 11.01 ЮВ 3 20 км ясно +18.0 -21.2 5 +18 +19 1019.7 885.0
15 11.01 штиль 0 15 км ясно +10.2 -20.0 10 +11 +11 1022.0 885.3 +18.9
18 11.01 штиль 0 15 км ясно +6.8 -20.4 12 +7 +7 1020.3 885.4
21 11.01 штиль 0 15 км ясно +1.2 -18.2 22 +1 +1 1018.3 884.1
00 12.01 штиль 0 15 км ясно +0.3 -20.2 20 +1 +1 1017.4 883.1
03 12.01 штиль 0 20 км ясно -0.7 -18.9 24 -1 -1 1019.2 882.7 -1.2
06 12.01 штиль 0 20 км 6/0
[Ac As]
+6.9 -18.0 15 +7 +12 1019.9 884.3
09 12.01 штиль 0 20 км 4/0
[Ac trans]
+16.5 -18.6 8 +17 +24 1015.7 881.5
12 12.01 В 3 20 км 1/0
[Ac trans]
+16.6 -19.1 7 +17 +17 1014.8 880.5
15 12.01 штиль 0 15 км ясно +8.7 -18.9 12 +9 +9 1018.2 881.5 +18.2
18 12.01 штиль 0 15 км ясно +6.7 -14.0 21 +7 +7 1016.7 881.5
21 12.01 штиль 0 15 км ясно +1.5 -14.4 30 +2 +2 1014.4 880.2
00 13.01 штиль 0 15 км ясно -1.5 -15.1 35 -2 -2 1013.1 878.7
03 13.01 штиль 0 20 км ясно -1.0 -14.6 35 -1 -1 1014.7 878.4 -2.4
06 13.01 ЮВ 2 20 км 6/0
[Cs]
+8.2 -11.9 23 +7 +12 1013.8 879.3
09 13.01 ЮВ 2 20 км 4/0
[Ac trans Ci fib]
+10.8 -9.5 23 +10 +16 1011.2 876.5
12 13.01 ЮВ 3 20 км 1/0
[Ci fib]
+11.7 -9.4 22 +11 +11 1010.7 875.6
15 13.01 штиль 0 15 км ясно +6.1 -9.4 32 +6 +6 1012.3 875.8 +12.4
18 13.01 штиль 0 15 км ясно +3.6 -9.2 39 +3 +3 1010.4 875.7
21 13.01 СВ 2 15 км 8/0
[Ac As]
+3.1 -9.2 40 +1 +1 1009.1 875.0
00 14.01 СВ 2 15 км 8/0
[Ac As]
+3.5 -10.8 34 +2 +2 1007.8 874.2
03 14.01 СВ 2 20 км 6/0
[Ac As]
+2.8 -12.4 32 +1 +1 1010.3 874.9 +1.8
06 14.01 штиль 0 20 км 10/3 1200 м
[Sc diur, vesp As op]
+6.7 -10.2 29 +7 +8 1011.6 876.4
09 14.01 В 3 20 км 6/0
[Ac As]
+12.3 -9.0 22 +11 +15 1007.8 874.2
12 14.01 штиль 0 20 км 6/3 1200 м
[Cu hum Ac As]
+10.5 -3.4 37 +10 +11 1007.8 874.0
15 14.01 Ю 2 12 км {ливн. осадки} 6/1 1200 м
[Sc diur, vesp Ac As]
+7.3 -1.9 52 +6 +6 1011.2 876.1 +12.9
18 14.01 СВ 2 12 км {ливн. осадки} 3/0
[Ac trans]
+5.6 -1.7 59 +4 +4 1011.8 877.1 0.0
21 14.01 штиль 0 15 км 1/0
[Ac trans]
+2.8 -3.2 65 +2 +2 1012.7 878.5
00 15.01 ЮВ 2 15 км 1/0
[Ac trans]
+1.5 -4.9 62 -1 -1 1015.5 880.2
03 15.01 штиль 0 15 км 1/0
[Ac trans]
-0.8 -6.8 64 -2 -2 1018.9 881.9 -0.8
06 15.01 ЮЗ 4 18 км ясно +5.4 -8.5 36 +2 +6 1021.3 885.0
09 15.01 ЮЗ 7 15 км ясно +9.1 -11.0 23 +6 +8 1019.3 883.4
12 15.01 ЮЗ 3 15 км ясно +10.8 -14.8 15 +10 +11 1019.4 883.5
15 15.01 ЮВ 6 12 км ясно +4.5 -7.0 43 0 0 1023.2 885.0 +11.1
18 15.01 штиль 0 12 км ясно +1.7 -6.8 53 +1 +1 1023.1 885.7
21 15.01 штиль 0 12 км ясно +0.6 -7.4 55 0 0 1021.0 885.1
00 16.01 штиль 0 12 км ясно +1.2 -6.8 55 +1 +1 1019.9 884.0
03 16.01 штиль 0 15 км 6/0
[Ac As]
+1.0 -6.4 58 0 0 1022.6 884.9 -1.4
06 16.01 штиль 0 15 км 10/3 1200 м
[Sc diur, vesp As op]
+3.4 -6.7 48 +3 +4 1023.4 885.5
09 16.01 СВ 2 15 км 8/3 1200 м
[Sc diur, vesp Ac As]
+7.2 -5.7 39 +6 +9 1020.3 883.4
12 16.01 ЮВ 4 15 км 8/3 1200 м
[Sc diur, vesp Ac As]
+6.6 -7.2 37 +4 +4 1020.2 883.3
15 16.01 штиль 0 15 км 3/0
[Ac trans]
+3.6 -6.7 47 +3 +3 1022.9 884.9 +7.5

 

Местоположение метеостанции Nehbandan (Иран): широта 31.53 долгота 60.03 высота над уровнем моря 1211 м.

В архиве по умолчанию представлена погода в Nehbandan за последнюю неделю. Архивные данные за месяц целиком и за предыдущие месяцы, начиная с января 2011 года, Вы можете получить, выбрав интересующий диапазон дат из раскрывающегося списка и нажав кнопку "Ввод!".

Внимание! Время в таблицах - всемирное. Для получения местного времени необходимо прибавить поправку, которая в Nehbandan равна 3.5 ч.

Ветер - указаны скорость ветра в м/с - средняя за 10 мин, порывы в срок и между сроками (в фигурных скобках) и направление, откуда дует ветер: С - северный, СВ - северо-восточный, В - восточный, ЮВ - юго-восточный, Ю - южный, ЮЗ - юго-западный, З - западный, СЗ - северо-западный.
Видимость - горизонтальная дальность видимости в метрах или километрах. При видимости от 1 до 10 км при отсутствии осадков обычно наблюдается дымка, при ухудшении видимости до 1 км и менее - туман. В сухую погоду видимость может ухудшаться дымом, пылью или мглою.
Явления - указаны атмосферные явления, наблюдавшиеся в срок или в последний час перед сроком; фигурными скобками обозначены явления, наблюдавшиеся между сроками (за 1-3 часа до срока); квадратными скобками обозначены град или гололедные отложения с указанием их диаметра в мм.
Облачность - указаны через наклонную черту общая и нижняя облачность в баллах и высота нижней границы облаков в метрах; квадратными скобками обозначены формы облаков: Ci - перистые, Cs - перисто-слоистые, Cc - перисто-кучевые, Ac - высококучевые, As - высокослоистые, Sc - слоисто-кучевые, Ns - слоисто-дождевые, Cu - кучевые, Cb - кучево-дождевые. Подробнее классификацию облаков см. в Атласе облаков (PDF).
T - Температура воздуха - температура, измеренная на высоте 2 м над землей.
Td - Температура точки росы - температура, при понижении до которой содержащийся в воздухе водяной пар достигнет насыщения.
f - Относительная влажность воздуха - влажноcть воздуха, измеренная на высоте 2 м над землей.
Te - Эффективная температура - температура, которую ощущает одетый по сезону человек в тени. Характеристика душности погоды. При расчете учитывается влияние влажности воздуха и скорости ветра на теплоощущения человека.
Tes - Эффективная температура на солнце - температура, которую ощущает человек, с поправкой на солнечный нагрев. Характеристика знойности погоды. Зависит от высоты солнца над горизонтом, облачности и скорости ветра. Ночью, в пасмурную погоду, а также при ветре 12 м/с и более поправка равна нулю.
P - Атмосферное давление - приведенное к уровню моря атмосферное давление.
Po - Атмосферное давление - измеренное на уровне метеостанции атмосферное давление.
Tmin - Минимальная температура - минимум температуры воздуха на высоте 2 м над землей.
Tmax - Максимальная температура - максимум температуры воздуха на высоте 2 м над землей.
R - Количество осадков - Количество выпавших осадков, мм. При наведении курсора мыши на число - период времени, за который выпало указанное количество осадков.
S - Снежный покров - Высота снежного покрова, см. При наведении курсора мыши на число - состояние снежного покрова и степень покрытия местности в баллах.